ORBCOMM FM27 [+]

Last updated on July 6, 2021, 3:36 p.m. UTC

1 25481U 98053G   21186.81328766  .00000067  00000-0  75232-4 0  9990
2 25481  45.0059 229.8773 0002130 267.0301  93.0301 14.33084373190527
UTC
Height (km)
Latitude
Longitude
Inclination
Orbital Period
UTC large
Height (km)
Speed (km/s)
/
Latitude / Longitude
Inclination (degrees)
Orbital Period (minutes)
Azimuth
Elevation
Range (km)
Doppler Factor
iOS Compass Heading
iOS Angle